Location: Fuglau
(48.6333°N, 15.5500°E)
Time: 04:13:08
(UTC+00:00)

STARLINK-1043 - Pass Details

Date: 27 February 2020
Orbit: 549 x 550 km, 53.0° (Epoch: 09 April)

Event Time Altitude Azimuth Distance (km) Brightness Sun altitude
Rises 17:50:47 0° 231° (SW) 2,712 8.0 -12.9°
Reaches altitude 10° 17:53:02 10° 228° (SW) 1,821 6.9 -13.3°
Maximum altitude 17:57:07 62° 148° (SSE) 624 3.7 -13.9°
Enters shadow 17:59:32 23° 74° (ENE) 1,192 4.8 -14.3°
